Theta_e
317 315 314 313 313 314 313 314 314 313 310 309 309 311 310 308 308 308 308 309 308 307 308 307 306 305 305 305 305 306 307 307 307 307 307 306 306 306 306 306 305 305 305 305 306 306 307 307 308 309 310 311 312 312 312 312 313 313 314 313 313 314 315 316 317 317 317 318 318 319 323 325 324 322 320 318 317 318 319 321 324 327 328 329 330 332 334
317 314 312 312 312 312 312 314 314 313 311 310 309 310 308 306 306 307 307 307 307 307 307 306 305 305 305 305 305 306 307 307 307 307 307 306 306 305 305 305 305 305 305 305 306 306 307 308 309 310 311 312 313 314 313 313 313 313 314 313 313 314 316 317 317 317 318 318 318 318 320 323 324 324 321 319 318 319 320 322 324 327 328 329 330 331 332
314 312 310 311 311 311 312 313 313 312 311 309 308 308 307 305 306 307 307 307 307 307 305 305 305 305 305 305 306 306 307 307 307 307 306 306 305 305 305 305 305 305 305 305 306 306 307 309 310 311 312 314 315 315 314 313 313 313 314 313 313 314 316 317 317 318 319 319 318 317 317 320 323 324 323 321 319 319 321 323 325 326 327 329 330 331 332
312 310 310 311 311 311 312 312 312 312 311 311 310 309 308 307 308 309 309 308 308 307 305 304 304 304 304 304 306 307 307 307 307 307 306 306 305 305 305 305 305 305 305 306 306 307 308 309 310 312 314 315 316 316 315 314 313 314 314 313 314 315 317 317 317 318 320 320 319 317 317 319 321 323 323 322 320 320 321 323 324 325 326 328 329 330 332
310 309 310 311 311 312 314 314 314 313 312 312 311 309 308 307 307 309 310 308 308 307 305 305 305 304 304 304 306 307 307 307 307 307 306 306 305 305 305 305 305 305 305 306 306 307 308 309 311 313 315 315 316 316 316 315 314 314 314 314 315 316 317 318 317 319 323 323 320 318 317 318 320 322 323 322 320 321 321 321 322 323 325 327 329 329 331
311 310 309 310 312 313 314 314 314 312 310 311 311 311 310 308 307 309 310 309 307 306 305 305 305 305 304 305 306 306 306 306 307 307 306 306 305 305 305 305 305 305 305 306 307 308 309 310 312 315 316 315 315 315 315 315 314 315 315 316 317 317 317 318 317 320 324 324 322 319 318 319 321 322 322 321 321 322 323 322 322 322 324 326 328 328 328
310 310 309 310 314 314 312 313 314 311 308 309 310 311 311 308 307 307 308 309 308 306 304 304 304 304 304 305 306 305 305 306 307 307 306 306 305 305 305 305 305 305 305 306 307 308 309 311 314 316 317 316 315 315 315 315 316 316 317 318 318 317 317 318 318 321 325 326 324 323 322 322 323 323 322 322 323 324 326 326 324 322 323 324 326 326 325
307 309 310 311 312 312 311 312 312 309 308 309 309 310 312 312 310 307 308 310 308 304 303 304 304 304 305 305 306 305 305 306 307 307 306 305 305 305 304 305 305 305 305 306 307 308 310 312 314 316 316 316 316 316 316 317 317 318 319 319 318 318 318 319 319 321 323 325 325 325 324 324 325 325 325 324 324 325 327 327 327 325 324 324 325 326 324
308 310 311 311 311 311 311 313 311 308 308 310 309 309 312 312 308 306 309 311 306 302 303 305 304 305 305 305 305 305 305 307 307 306 306 305 305 305 305 305 305 305 306 306 308 309 310 312 315 316 316 316 316 317 318 317 318 321 322 320 319 319 319 319 320 321 323 324 325 325 326 326 327 326 325 324 323 324 326 328 328 327 325 324 326 327 325
309 311 311 312 315 315 314 315 313 307 306 308 307 308 311 310 306 305 307 309 305 302 303 304 304 305 305 304 304 304 306 306 306 306 306 305 305 305 305 305 305 305 305 306 308 309 311 313 316 317 317 317 317 318 318 317 317 321 323 324 323 323 321 321 321 322 323 325 326 326 327 326 324 321 320 321 322 323 325 326 326 325 324 325 327 327 326
310 311 312 312 315 316 315 315 312 306 305 306 306 308 311 310 306 305 306 306 304 303 303 303 304 305 305 304 304 304 306 306 305 305 305 305 305 305 305 305 306 305 305 307 309 311 312 314 316 317 318 318 318 319 319 318 317 318 321 323 324 324 323 322 321 322 323 323 324 324 324 322 319 318 319 321 324 324 324 324 324 325 325 325 327 327 327
311 312 312 311 312 312 313 313 309 305 305 306 306 309 311 309 306 306 306 306 305 305 304 304 305 306 305 304 305 305 306 305 304 305 305 305 305 305 305 305 306 305 305 307 310 312 312 313 315 316 318 319 319 320 320 319 318 317 317 318 319 320 320 320 321 322 322 323 323 322 321 320 319 320 321 323 324 323 322 322 323 325 326 326 325 325 326
312 312 311 311 311 312 312 311 308 305 306 307 309 311 311 307 306 307 307 306 306 305 305 304 305 305 305 304 305 306 306 305 304 304 305 305 305 305 305 306 305 305 305 307 310 312 311 312 314 315 317 318 318 319 318 317 317 316 317 317 316 317 317 316 317 319 319 320 321 321 321 321 321 321 321 322 322 322 322 323 323 324 326 326 324 323 324
311 311 312 311 311 311 308 308 307 305 307 311 312 311 309 307 307 307 307 306 306 306 305 305 304 304 304 304 305 305 305 304 304 304 304 305 305 305 305 306 305 305 305 306 309 312 312 312 314 315 316 316 316 318 318 317 317 317 317 317 317 318 318 317 317 318 318 319 320 321 321 321 321 321 322 322 322 323 324 325 325 324 325 325 325 323 323
309 311 312 313 315 313 307 307 308 307 309 312 312 309 308 308 307 307 307 307 306 306 306 305 304 304 304 304 304 304 304 303 303 304 305 305 305 305 305 305 305 305 305 305 307 309 312 312 313 314 316 315 315 317 317 317 318 318 318 318 318 318 320 320 319 318 317 317 318 319 319 319 319 320 321 322 323 324 324 325 325 326 326 327 327 327 326
311 315 316 316 317 313 307 308 311 310 309 310 309 308 308 308 307 307 307 307 306 306 305 304 304 304 304 304 304 304 303 302 303 305 305 304 305 305 305 305 305 305 305 305 306 308 311 312 312 313 314 314 315 317 318 318 318 319 320 320 320 320 321 321 321 319 317 317 317 317 317 317 318 319 320 321 322 323 324 325 325 326 326 328 329 329 329
313 318 318 313 310 309 308 309 310 310 309 309 308 308 308 307 307 307 307 307 306 306 305 305 304 304 304 304 305 304 303 302 304 305 305 304 305 305 305 305 305 304 305 305 306 308 310 311 311 313 313 313 314 316 318 319 319 319 320 320 320 321 321 321 321 320 318 317 316 316 317 318 318 320 321 321 322 323 325 325 326 326 326 328 329 330 330
312 312 312 309 308 309 310 309 309 309 309 309 308 308 308 307 307 307 307 307 306 306 305 305 304 304 304 304 304 304 303 302 304 305 305 304 305 305 305 305 305 305 304 305 305 306 307 308 310 311 312 311 312 314 316 319 320 320 320 320 319 319 319 318 317 317 316 316 315 316 317 317 318 320 321 322 322 324 325 326 327 327 327 329 330 330 330
313 314 316 312 310 310 310 309 310 310 309 309 308 308 308 307 307 307 307 306 306 306 305 305 304 304 304 304 304 304 303 302 304 305 305 304 305 305 305 305 305 305 304 304 304 305 305 305 307 308 307 307 309 312 315 317 319 320 320 320 319 318 316 315 315 315 316 316 316 317 318 318 318 320 321 322 324 324 326 326 326 327 328 329 330 330 330
313 315 315 310 308 310 310 309 310 309 308 309 308 307 308 307 307 307 307 306 306 306 305 305 304 304 304 303 303 304 302 302 304 304 304 305 305 305 305 305 304 304 304 304 304 304 304 304 304 306 307 306 307 311 315 317 318 319 319 320 320 318 316 316 317 317 318 318 319 320 320 319 320 321 322 324 325 326 326 326 325 326 327 328 329 330 329
314 314 312 309 309 311 310 309 309 308 308 309 308 307 308 307 307 307 307 306 306 305 305 305 304 304 304 303 303 303 302 302 304 304 304 304 304 304 304 304 304 305 305 304 303 303 303 303 303 305 306 306 305 308 312 315 317 318 319 321 321 319 318 319 320 321 321 321 321 322 321 320 320 322 323 324 325 325 326 326 326 326 326 326 326 327 328
317 316 313 311 311 313 312 309 308 308 308 308 308 307 308 307 307 307 307 306 306 306 306 305 304 304 304 303 303 303 302 302 304 303 303 304 304 304 304 304 304 305 305 304 304 303 303 303 303 304 305 305 305 306 307 310 312 316 318 320 320 320 320 321 322 322 322 322 321 322 322 322 322 322 321 322 323 324 324 325 325 326 327 327 326 327 327
316 313 311 309 309 311 310 307 307 308 309 308 308 308 308 307 307 307 307 306 306 306 306 305 304 304 303 303 303 302 301 303 304 303 303 304 304 304 304 303 303 304 304 304 304 304 304 304 304 304 304 304 304 305 305 306 308 311 314 317 319 319 320 321 322 322 322 322 321 320 321 322 323 323 322 322 323 323 324 324 324 325 326 327 328 328 328
312 311 311 310 309 309 308 307 308 309 308 308 308 308 308 308 307 307 307 306 306 306 306 305 305 304 303 303 302 301 301 303 304 303 303 304 304 304 304 304 303 303 303 304 304 304 304 304 304 304 305 304 304 304 305 306 307 309 310 312 315 317 318 320 321 322 322 322 321 321 322 323 323 324 324 324 323 323 324 326 326 326 326 326 327 328 328
311 311 311 310 309 309 307 307 308 308 308 308 308 308 308 308 308 307 307 306 306 306 306 305 305 304 304 303 302 301 301 302 303 303 303 303 304 304 304 304 304 303 303 303 303 304 304 304 304 304 304 305 305 305 304 305 306 308 309 310 312 314 316 317 318 320 321 322 321 321 322 323 323 324 324 324 323 323 324 326 327 327 327 327 327 327 327
311 311 310 309 308 307 307 307 308 308 308 308 307 308 308 308 308 308 307 306 306 305 305 305 305 304 304 304 303 302 302 302 303 303 303 304 304 304 304 304 304 304 303 303 303 303 303 303 304 304 304 304 305 305 305 304 305 306 308 309 310 311 313 315 316 317 318 319 319 320 321 322 323 324 324 324 325 325 325 325 326 326 327 327 327 327 326
311 311 310 309 307 306 307 307 307 308 308 308 308 308 308 308 308 308 307 307 306 306 305 305 305 304 304 304 303 303 302 301 302 303 303 304 304 304 304 304 304 303 304 303 303 303 303 303 303 303 303 303 304 305 305 304 304 304 306 308 309 310 311 312 314 315 315 316 317 318 319 320 322 323 323 324 325 326 326 325 325 325 326 326 327 327 327
312 311 310 309 308 307 307 307 307 308 308 308 308 308 308 308 308 308 307 307 306 306 306 305 305 304 304 304 304 303 303 302 302 302 303 303 304 304 304 304 303 303 303 303 303 303 302 302 302 302 302 303 303 304 305 305 304 304 305 306 308 309 310 310 312 313 313 314 315 316 317 318 320 322 322 322 323 324 325 325 326 326 326 327 327 327 327
311 310 309 308 307 307 307 307 307 308 308 308 308 308 308 308 308 308 308 307 307 306 306 305 305 305 304 304 304 304 303 302 301 301 302 302 302 303 303 303 303 303 303 303 303 303 303 302 302 302 302 302 303 303 304 305 304 304 304 305 306 307 308 309 310 311 312 312 313 314 315 316 318 319 320 321 322 322 323 324 325 325 326 327 327 327 327
310 308 308 307 307 307 307 307 308 308 308 308 308 308 308 308 308 308 308 307 307 307 306 306 305 305 304 304 304 304 304 303 301 301 301 301 301 301 302 302 302 302 303 303 303 303 303 303 302 302 301 302 302 303 303 304 304 304 304 304 305 305 306 307 308 309 310 311 312 313 313 314 314 315 316 317 318 319 320 321 322 323 324 325 325 325 326
309 307 307 307 307 307 307 307 308 308 308 308 308 308 308 308 308 308 308 308 307 307 307 306 306 305 304 304 304 304 304 303 302 302 301 301 301 301 301 301 302 302 302 303 303 303 303 303 303 302 301 301 302 302 303 303 304 304 304 305 305 305 305 305 306 307 308 309 310 311 312 312 313 313 313 314 314 315 316 317 318 319 319 320 321 321 322
308 307 307 307 307 307 307 307 308 308 308 308 308 308 308 308 308 308 308 308 307 307 307 307 306 306 305 304 304 304 304 303 303 303 302 301 301 301 300 300 301 301 302 302 303 303 303 303 303 303 302 301 301 302 303 303 304 304 304 305 305 305 305 305 305 306 306 307 308 309 310 310 311 311 312 312 312 313 313 314 315 316 316 316 317 317 318
308 307 307 307 306 306 306 307 307 307 307 308 308 308 308 308 308 308 308 307 307 307 307 307 306 306 305 304 304 304 304 304 304 304 303 302 302 301 301 301 301 301 301 302 303 303 303 303 303 303 302 302 301 301 302 303 303 303 304 304 304 305 305 305 305 305 306 306 307 307 307 308 309 309 310 310 311 311 311 312 312 313 314 314 315 315 316
309 308 307 307 306 306 306 306 307 307 307 307 307 308 308 308 308 308 308 308 307 307 307 307 307 306 306 304 304 304 304 304 304 304 303 303 302 302 302 302 301 301 301 301 302 302 303 303 303 303 303 302 302 301 301 302 302 303 303 303 304 304 304 304 304 305 305 305 306 306 306 306 307 307 308 308 309 309 309 309 310 310 311 312 312 313 314
309 308 307 307 306 305 306 306 307 307 307 307 307 308 308 308 308 308 308 307 307 307 307 307 307 306 306 305 304 304 304 304 304 304 303 303 302 302 302 302 302 302 302 301 301 302 302 303 303 303 303 302 302 302 301 301 301 302 303 303 303 303 303 304 304 304 304 304 304 304 305 305 305 305 306 306 307 307 307 307 307 307 308 308 309 310 311
308 307 307 307 306 305 306 307 306 306 307 307 307 307 307 307 308 308 308 307 307 307 307 307 306 306 306 304 304 304 304 304 304 304 304 303 303 302 302 302 302 302 302 302 302 301 301 302 302 303 303 302 302 302 302 302 301 301 301 302 302 302 303 303 303 303 303 304 303 303 303 304 304 304 304 305 305 305 306 306 306 306 306 306 306 307 308
308 307 307 307 306 305 306 306 306 306 307 307 307 307 306 306 307 307 307 307 307 307 307 307 306 306 305 304 304 303 304 304 304 304 304 303 303 303 303 303 303 302 302 302 302 302 301 301 301 301 302 302 302 302 302 302 302 301 301 300 301 301 301 301 302 302 302 302 302 303 303 303 303 303 303 303 303 304 304 304 304 305 305 305 305 306 306
308 307 307 307 305 305 305 305 306 306 307 307 307 307 306 306 305 304 305 305 306 305 305 306 305 305 305 304 304 303 304 304 304 303 303 303 303 303 303 303 303 302 302 301 301 302 301 301 300 300 301 301 302 302 302 301 301 302 301 301 300 300 300 300 300 301 301 301 301 301 302 302 302 302 302 302 302 302 302 303 303 303 304 304 304 304 305
308 307 308 307 306 305 305 305 305 306 306 307 307 307 306 305 305 304 303 303 303 303 303 303 303 304 304 304 304 304 304 304 304 303 303 303 303 303 303 303 303 302 301 301 301 302 301 301 301 301 300 300 301 301 302 301 301 301 302 302 301 301 301 301 301 301 301 300 300 300 300 301 301 301 301 301 301 301 301 302 302 302 302 302 302 303 303
308 308 308 307 306 305 305 305 305 305 305 306 307 307 306 305 305 304 303 302 301 301 301 301 301 302 303 303 303 304 304 303 303 303 303 303 303 303 303 303 302 302 301 301 301 301 301 301 301 301 301 300 300 300 301 301 301 301 301 302 302 301 301 301 301 301 301 301 301 300 300 300 300 300 301 301 301 301 301 301 301 301 301 301 301 302 302
309 308 308 308 307 306 305 305 305 305 305 306 306 306 306 306 305 304 304 303 301 301 301 301 301 300 301 301 302 302 301 301 302 303 303 303 303 303 303 302 302 302 302 301 301 301 301 301 301 300 300 300 300 300 300 301 300 300 301 301 302 302 301 301 301 301 301 301 301 301 300 300 300 300 300 300 300 301 300 300 300 300 300 301 301 301 301
309 308 308 308 307 307 305 305 305 305 305 305 305 306 306 306 306 305 304 303 302 301 301 302 302 301 301 301 301 300 299 298 299 300 301 301 301 301 301 301 302 302 302 301 301 301 301 301 301 300 300 300 300 300 300 300 300 300 300 300 301 301 301 301 301 301 300 300 300 300 300 300 300 299 299 300 300 300 300 300 300 300 300 300 300 300 300
309 308 308 307 307 307 306 305 305 305 305 305 304 305 306 306 306 305 305 304 303 302 302 302 302 302 302 301 300 300 299 297 296 297 298 298 298 299 299 300 300 300 301 301 301 301 301 301 301 300 300 300 300 300 300 300 299 299 299 299 299 300 301 301 301 301 301 300 300 300 300 300 300 299 299 299 299 300 299 299 299 299 299 299 299 299 299
310 309 309 308 307 307 306 305 305 304 304 304 305 305 305 305 305 305 305 304 304 303 303 302 302 302 302 301 301 300 300 297 295 295 295 295 296 296 296 296 296 296 298 299 300 300 300 300 300 300 300 299 299 299 299 299 299 299 299 299 299 299 300 300 301 301 301 300 300 300 300 300 300 299 298 298 298 299 299 299 299 299 299 299 299 299 299
310 310 309 309 308 307 306 306 305 304 304 304 304 305 304 304 304 304 304 304 304 303 303 303 302 302 302 302 301 301 300 298 296 294 294 293 294 294 293 293 293 293 294 295 297 298 299 300 300 300 299 299 299 299 299 299 299 299 299 299 299 299 299 299 299 300 300 300 300 300 299 299 299 299 298 298 297 297 298 299 299 299 299 299 299 298 298
309 309 309 309 309 308 307 306 306 306 305 304 304 305 304 303 303 303 303 303 303 303 303 303 302 301 302 302 302 301 300 298 296 295 294 293 292 292 291 291 291 292 292 293 295 297 299 299 299 299 299 299 299 299 299 299 299 299 299 299 299 298 298 298 298 298 299 299 299 299 299 299 298 298 298 297 296 296 297 298 298 298 299 299 299 298 298
309 309 309 309 309 309 307 306 305 306 305 304 305 306 304 303 303 303 303 302 302 302 302 302 301 300 300 301 301 300 299 298 296 296 295 293 292 291 291 291 291 291 291 292 293 295 296 297 298 298 298 298 299 299 299 299 299 299 299 299 299 299 298 298 298 298 298 298 298 298 298 298 297 296 296 296 296 295 296 297 297 297 298 298 298 298 298
308 308 308 308 308 308 307 306 305 305 305 304 305 306 305 303 303 303 303 302 302 301 302 302 301 300 300 300 299 299 298 297 296 296 295 294 293 292 291 291 291 291 291 291 291 292 293 294 294 295 296 297 298 298 298 298 298 299 299 298 299 298 298 298 298 298 298 298 298 298 298 297 297 296 296 296 296 296 295 295 296 297 297 297 297 297 297
308 308 308 308 308 307 306 305 305 305 305 305 305 306 305 304 303 303 303 303 302 301 301 301 301 300 299 299 299 298 298 297 296 295 295 294 293 292 292 292 291 291 291 291 291 291 291 291 292 292 293 294 295 295 295 295 295 296 296 297 297 298 298 298 298 298 297 297 297 297 297 297 297 297 297 296 297 296 296 295 296 296 296 296 296 296 296
308 308 308 308 308 307 307 306 305 305 305 305 305 305 305 304 303 303 303 303 303 302 301 301 300 300 299 299 299 299 298 297 296 295 295 295 294 293 292 292 292 291 291 292 291 291 291 291 291 291 291 292 292 292 291 291 291 292 292 293 293 294 294 294 295 296 296 296 296 296 297 297 297 297 297 296 296 296 295 295 295 295 295 295 295 295 295
307 307 307 307 307 307 307 307 306 306 305 305 305 306 306 305 304 303 304 303 303 302 302 301 301 300 299 299 300 299 297 296 296 296 295 295 295 294 292 292 292 292 292 292 292 291 291 291 291 291 291 291 291 291 291 290 290 290 290 290 290 290 290 291 291 292 293 293 293 294 295 295 295 294 294 293 293 294 293 293 293 293 294 294 294 294 294
307 307 307 307 307 307 307 307 307 306 305 305 305 306 306 306 305 305 305 304 303 303 302 302 302 301 300 300 300 299 298 297 297 297 296 296 295 294 293 293 292 292 292 292 292 292 292 291 291 291 291 291 291 291 291 291 291 291 290 290 290 290 290 290 290 290 291 290 290 290 290 291 290 290 290 290 290 290 291 291 291 291 291 292 293 293 294
Wind_Speed
5 3 2 5 5 3 4 5 5 4 5 6 6 6 5 5 3 6 6 6 9 11 12 13 13 13 13 17 24 28 29 31 31 29 31 37 40 40 42 44 44 45 46 46 46 46 45 46 46 43 40 38 34 31 31 31 30 30 29 29 31 31 31 34 37 39 41 44 44 43 42 41 41 40 39 37 33 31 30 28 27 26 26 26 28 31 34
5 4 2 2 4 2 2 4 6 4 5 7 8 7 4 5 7 9 8 10 11 10 11 13 15 19 21 22 27 29 29 29 27 26 31 35 37 39 43 46 47 48 48 47 47 47 47 47 46 44 41 37 32 30 30 30 30 30 28 28 31 31 31 34 37 38 39 41 42 42 40 40 41 40 39 37 34 31 30 28 27 26 26 26 27 27 28
4 4 4 2 3 2 1 4 5 3 3 5 5 4 3 3 6 8 8 9 10 9 10 12 17 23 23 21 23 27 29 28 25 27 32 35 37 41 44 45 48 48 47 47 47 47 48 46 44 42 39 32 29 29 29 29 29 27 27 28 30 31 32 34 36 36 37 39 40 40 40 41 41 40 39 38 34 32 31 29 27 26 25 25 24 24 25
4 3 3 4 4 4 4 6 7 5 4 4 3 4 4 5 4 5 6 6 7 8 10 12 16 19 18 17 20 25 30 28 26 29 34 38 40 41 41 44 47 47 46 46 47 47 47 45 43 40 35 27 25 25 25 25 25 24 25 27 29 31 32 33 34 34 36 38 39 40 40 40 40 39 38 37 34 32 31 29 27 26 25 23 22 22 23
4 3 2 2 3 4 4 6 6 7 5 4 3 5 6 6 4 3 4 5 7 9 11 12 13 13 15 18 21 26 30 28 29 32 35 38 41 40 41 44 46 46 46 46 47 46 45 43 40 33 26 21 20 19 17 19 21 21 22 24 27 30 31 31 33 34 35 36 38 39 40 39 38 37 37 36 34 32 31 29 27 26 24 22 22 21 21
2 3 3 3 2 3 4 4 4 6 4 3 4 7 8 6 5 4 5 6 8 10 10 10 13 14 17 22 26 28 27 25 29 35 36 38 40 40 42 45 46 47 48 48 46 44 41 39 34 24 17 15 13 10 8 11 14 16 18 22 25 29 29 29 32 33 34 36 37 38 39 37 36 36 36 35 34 32 31 30 28 26 24 22 22 21 20
1 2 5 4 3 5 5 5 4 3 3 4 5 8 9 7 7 8 8 9 10 12 14 16 19 22 24 27 27 24 21 22 29 35 37 38 40 41 44 46 46 48 48 46 44 41 38 36 29 20 15 14 10 5 1 5 8 11 15 20 24 26 26 28 31 33 34 34 35 35 35 35 35 35 35 33 31 30 30 30 28 25 23 23 22 21 20
1 1 3 0 5 5 4 5 3 1 0 1 2 6 8 6 7 7 7 9 12 15 20 23 25 28 27 24 20 17 18 25 31 33 35 37 40 42 45 45 46 47 45 43 40 36 34 33 27 18 14 12 9 5 2 3 5 9 14 19 22 22 22 25 29 31 31 31 31 31 30 32 33 32 30 29 28 28 29 29 27 25 24 24 23 22 21
1 2 1 3 4 5 5 4 2 3 2 1 0 2 6 6 6 6 5 8 11 15 21 26 29 29 23 14 10 14 22 28 32 33 35 38 41 43 44 44 45 45 43 39 36 34 32 30 23 16 12 9 7 5 3 2 2 8 13 15 16 17 18 20 23 25 25 25 26 27 28 30 30 28 27 27 28 27 27 27 27 26 25 25 25 24 23
2 3 2 4 4 3 5 6 5 3 3 3 5 3 4 7 7 8 7 7 10 13 18 25 28 25 16 6 8 21 32 35 36 38 39 41 43 44 45 44 44 44 41 37 35 34 31 27 22 17 13 10 10 9 7 4 4 6 8 10 12 14 15 16 18 19 21 22 24 25 26 25 24 23 23 24 24 24 24 25 25 25 26 26 26 26 25
1 2 1 1 1 4 6 7 6 3 3 7 7 3 4 6 6 6 5 7 12 14 17 22 20 15 10 7 15 31 39 39 40 41 41 43 44 44 44 43 43 42 39 36 34 32 30 27 24 20 17 13 11 10 9 8 6 6 5 6 9 11 13 13 14 16 18 19 21 21 20 20 19 20 21 21 21 22 23 24 24 25 26 27 27 27 26
1 2 1 2 3 5 5 7 6 1 7 9 3 4 5 5 5 6 5 10 15 16 19 19 11 8 9 12 23 36 38 36 39 40 40 41 42 43 43 43 42 42 38 36 34 33 31 28 25 21 18 16 13 10 8 6 5 6 5 4 5 7 10 11 12 14 15 17 17 17 16 16 17 18 20 21 22 23 23 24 25 27 28 28 29 29 29
2 3 2 3 4 5 6 4 3 7 8 4 2 4 6 5 8 9 9 13 15 16 19 15 9 12 19 23 30 35 33 34 37 37 37 38 39 40 41 40 41 41 38 35 32 31 30 28 25 22 20 17 14 10 6 4 4 5 4 3 2 5 7 10 11 12 13 13 13 13 12 13 15 17 20 21 23 24 24 25 26 28 30 31 32 32 31
2 3 2 3 4 5 5 4 6 8 4 1 3 6 7 8 10 11 11 13 14 15 17 15 15 22 27 27 29 31 30 32 35 35 36 37 37 39 40 39 39 40 39 36 31 29 29 28 26 23 21 20 18 12 7 5 4 3 2 2 2 2 4 7 8 8 7 8 9 9 10 11 14 17 20 21 23 25 25 26 27 29 32 34 35 34 33
1 1 2 1 3 5 6 6 4 4 3 3 6 7 7 8 9 10 11 13 13 14 15 17 20 25 27 26 28 29 29 31 33 34 35 36 36 38 39 40 40 39 38 36 33 30 28 28 28 25 23 23 21 15 9 7 5 2 1 2 3 3 3 3 3 3 5 8 10 12 14 15 17 20 22 23 24 26 27 27 28 30 33 36 37 38 36
2 2 1 3 4 5 8 8 4 5 6 6 6 6 7 9 8 8 10 12 12 12 14 18 22 25 26 26 28 28 29 32 33 32 34 34 35 37 38 38 38 37 35 35 35 33 28 26 27 26 25 25 24 19 13 9 6 4 2 2 2 4 4 4 3 5 7 10 13 16 18 19 20 22 24 26 26 26 27 26 27 30 33 36 38 40 38
4 4 6 7 5 4 7 10 11 11 9 8 7 7 9 10 8 8 10 12 12 11 13 17 21 24 25 26 27 27 29 32 32 31 32 34 34 35 36 37 36 35 34 34 35 34 31 27 25 24 24 25 25 22 17 10 6 6 5 2 2 3 4 4 5 8 12 17 20 22 21 20 20 21 24 27 27 26 25 25 26 29 32 35 38 40 40
3 6 9 9 9 9 9 9 11 12 11 8 7 7 9 8 7 7 9 11 12 12 13 16 19 23 24 25 26 26 28 31 31 30 32 34 34 34 35 36 36 34 33 33 34 34 33 31 28 24 23 24 25 23 18 13 8 7 6 3 3 3 2 6 11 17 22 25 26 26 25 25 23 22 24 26 26 24 25 25 26 28 32 36 38 40 40
1 4 6 5 6 10 8 7 9 11 11 10 8 7 8 7 6 7 9 10 11 11 12 14 18 22 24 25 26 26 28 30 30 30 32 33 34 34 35 35 35 34 33 33 34 34 34 33 31 28 25 25 25 22 18 15 11 9 7 4 3 1 6 12 17 22 24 24 27 30 32 32 29 25 24 24 23 22 24 27 28 28 31 36 39 39 39
2 5 9 9 10 11 10 10 11 11 10 11 9 8 8 7 7 8 8 9 9 10 11 13 16 21 23 24 25 26 27 28 28 29 32 32 32 33 33 34 35 34 33 33 33 33 33 32 31 31 29 29 27 23 19 15 12 10 10 7 5 3 4 8 10 14 17 19 23 24 22 22 24 22 19 20 22 22 23 27 29 29 30 33 37 39 39
3 7 9 9 9 9 9 9 10 9 8 10 9 8 8 8 8 8 8 8 8 9 11 12 14 20 22 23 23 24 26 26 25 27 30 30 30 32 33 34 34 34 34 34 33 33 33 33 32 31 30 30 30 27 21 16 12 10 9 8 7 4 2 6 7 10 13 13 15 16 11 8 12 14 14 16 20 21 20 22 25 26 28 31 35 38 38
4 6 5 3 2 4 7 6 7 7 7 10 10 8 7 8 8 8 8 8 8 8 10 10 13 18 21 21 22 23 24 24 23 25 28 29 29 31 33 34 34 34 34 35 35 35 37 38 37 35 32 29 28 28 26 21 17 13 9 5 4 3 2 4 4 6 5 2 4 10 9 5 3 5 8 10 12 14 16 18 19 22 25 29 32 34 36
7 8 8 5 4 6 7 6 6 6 8 10 10 8 6 7 8 7 7 8 8 7 9 10 11 15 18 20 21 23 23 21 21 23 26 27 28 30 32 34 35 35 35 36 36 37 38 40 41 40 38 33 28 26 26 25 22 19 14 9 6 5 3 2 1 4 4 3 3 3 4 4 4 2 3 4 5 9 13 14 13 15 19 24 27 29 31
8 9 9 5 5 7 7 7 7 6 8 10 9 7 6 6 6 6 7 8 8 7 8 9 10 13 17 18 20 22 22 20 19 22 24 25 26 28 30 32 35 36 36 36 36 36 37 39 40 41 41 39 33 28 27 25 24 22 19 16 14 11 7 4 3 2 4 4 4 4 3 3 4 3 1 3 2 6 9 9 7 7 9 15 22 27 28
13 11 9 6 6 7 6 6 6 7 9 10 8 6 5 5 5 6 7 7 7 7 7 8 9 12 15 17 19 21 21 20 19 20 22 23 24 26 28 31 33 35 36 37 36 35 35 37 38 39 40 41 38 34 30 26 24 23 22 20 18 16 13 10 7 4 3 3 5 7 8 9 9 7 5 4 3 2 2 2 4 3 2 6 12 18 24
16 15 10 7 6 6 5 5 6 7 11 11 8 5 4 4 4 6 7 7 7 6 6 7 7 9 13 16 18 20 20 20 19 19 21 23 24 25 27 29 30 32 35 36 37 37 36 36 36 37 38 39 38 37 34 30 26 24 23 22 20 18 16 14 12 10 8 6 6 7 9 11 10 9 7 6 5 7 6 5 5 4 2 2 5 7 10
15 13 10 7 6 6 6 5 5 7 10 10 7 5 4 3 4 6 7 7 7 6 5 6 6 8 11 14 17 19 20 20 20 20 21 22 23 23 25 26 27 30 33 35 37 38 38 37 37 36 36 36 36 36 36 34 31 28 26 24 23 21 20 17 16 15 13 11 10 9 9 9 9 9 9 7 5 6 6 5 5 5 3 2 2 2 3
12 11 9 7 6 5 5 5 5 7 9 9 7 5 4 3 4 5 7 7 7 6 5 5 5 7 9 12 15 18 19 20 21 21 21 21 21 22 23 25 27 29 31 34 36 36 38 39 39 37 35 34 34 35 36 36 35 33 31 28 26 24 22 20 19 17 16 15 13 11 9 8 7 7 7 6 6 7 6 6 5 4 4 4 4 2 2
8 8 7 6 5 5 5 5 6 6 9 9 8 6 6 5 4 4 6 7 7 6 6 5 6 7 8 9 12 15 18 20 20 20 20 20 21 22 23 24 26 27 29 32 34 36 37 39 40 39 36 33 31 32 33 35 36 36 35 34 31 28 25 22 20 18 17 15 15 13 11 9 7 6 6 5 6 6 6 6 6 5 4 3 2 2 2
7 6 5 4 4 4 4 5 5 7 9 9 8 8 8 7 6 5 5 6 7 7 6 5 5 7 7 7 9 13 15 17 18 19 19 20 21 22 23 24 26 28 29 31 32 34 35 36 38 40 38 34 30 28 30 32 34 35 35 35 35 33 30 27 24 22 20 17 16 15 14 14 13 11 10 8 7 6 6 7 7 6 5 4 3 3 3
7 6 4 4 4 4 3 3 5 7 9 9 10 10 10 9 8 6 6 6 7 7 6 5 5 6 7 6 7 10 12 14 16 17 18 19 21 22 23 25 26 27 28 28 29 30 32 33 35 37 38 36 32 28 27 28 29 30 32 33 33 33 33 31 30 28 26 23 21 19 18 18 18 17 16 15 13 11 10 9 9 8 8 8 8 8 8
7 6 4 4 4 3 4 4 5 6 8 9 10 11 10 10 9 8 7 7 7 7 7 6 6 6 7 7 6 7 9 11 14 15 16 18 20 22 23 24 25 25 25 25 26 27 29 31 32 34 36 37 35 31 28 26 26 27 28 29 30 31 32 32 33 32 31 30 28 27 24 22 20 20 20 19 19 17 15 14 12 11 10 10 10 10 11
8 7 6 6 5 5 6 6 5 6 7 8 9 9 9 10 9 8 8 7 7 7 7 7 6 7 7 7 6 5 7 10 12 15 15 16 18 20 21 23 24 25 25 25 24 25 26 28 29 30 32 35 36 35 32 29 26 26 25 26 26 27 29 30 31 31 32 33 32 31 29 27 25 24 23 21 20 19 19 18 16 15 13 12 11 11 11
7 7 7 6 6 6 6 6 6 6 7 7 7 8 9 10 9 8 8 7 7 7 8 8 8 8 8 8 6 4 5 9 12 13 14 15 16 17 19 20 21 22 24 25 25 25 25 26 27 28 30 31 34 35 35 33 30 28 26 25 26 26 27 29 29 30 32 32 31 31 31 31 30 29 27 25 23 22 22 22 21 19 17 16 14 12 10
7 7 6 6 6 6 6 5 5 6 6 6 6 7 8 8 8 7 7 7 7 7 8 9 10 9 8 9 8 4 4 8 11 12 13 14 15 16 17 18 19 20 22 24 26 26 25 24 25 26 27 29 31 33 34 35 34 31 29 27 27 27 27 27 28 29 29 29 29 30 31 31 31 31 30 28 27 26 25 24 24 23 22 21 18 16 14
7 6 6 7 7 6 6 6 5 6 5 5 5 5 6 6 7 7 7 7 7 8 8 9 9 9 8 9 8 5 4 7 10 11 12 14 15 16 17 18 19 19 20 23 25 25 25 24 24 24 25 26 28 30 31 32 33 32 31 30 29 29 29 29 29 28 28 28 29 29 29 29 29 29 29 29 29 28 28 28 27 27 26 25 23 21 19
7 6 7 7 8 7 7 7 6 7 6 6 5 5 5 5 5 6 7 8 8 8 9 8 8 9 8 8 8 6 5 7 9 12 14 15 15 16 17 18 19 19 19 21 23 24 24 23 23 23 23 24 25 27 28 29 30 30 31 31 31 31 32 32 32 32 32 31 31 30 30 30 30 29 29 29 29 28 28 28 27 28 28 27 27 26 24
7 8 8 8 8 9 9 8 7 8 8 8 7 6 5 5 4 4 5 6 7 7 8 7 7 8 7 7 8 7 7 8 10 12 14 15 15 15 17 17 17 17 18 19 21 22 23 23 22 22 23 23 23 24 25 25 26 27 28 29 30 30 31 32 33 34 34 34 34 34 33 33 32 31 30 30 29 29 29 28 27 27 27 27 27 27 27
10 10 10 9 9 10 10 10 9 9 9 9 9 8 6 6 5 4 3 4 5 5 6 6 6 6 6 5 6 7 8 10 11 12 12 13 13 14 16 17 16 15 16 17 18 19 20 21 21 22 23 23 22 22 22 22 23 24 25 26 27 28 29 30 31 32 33 34 34 35 35 35 34 32 31 30 29 29 29 29 29 29 28 28 27 27 26
12 12 12 11 11 11 12 12 11 10 9 10 10 10 8 7 6 5 4 4 4 3 3 4 4 4 4 5 6 7 9 11 12 12 13 13 13 14 15 15 14 13 13 14 15 16 17 18 19 20 21 22 22 22 21 20 20 20 21 23 24 25 26 26 27 29 30 31 32 33 34 34 34 33 32 31 30 30 30 30 30 30 29 29 28 27 26
14 14 14 14 14 13 13 13 12 11 10 10 11 11 10 9 9 7 6 5 5 4 3 3 3 3 3 4 5 7 9 11 12 12 12 13 14 14 14 14 13 12 11 12 13 14 15 16 17 17 18 20 21 21 21 20 18 18 18 19 21 22 23 24 25 26 27 29 29 30 31 31 32 32 33 32 32 31 30 30 30 30 29 29 29 28 27
17 17 17 18 17 15 14 14 13 13 12 11 12 13 13 12 11 9 8 7 7 6 6 5 5 5 5 5 6 8 10 11 11 11 12 12 13 13 13 12 12 12 12 12 12 12 13 14 15 15 16 17 17 18 19 19 18 17 16 17 18 19 19 20 22 23 24 25 26 27 28 28 30 30 31 31 31 31 31 30 30 30 30 29 29 28 28
20 21 21 21 20 18 16 15 14 14 13 11 11 13 15 15 13 12 11 10 9 9 9 8 8 8 8 7 7 8 11 12 11 10 11 11 11 12 11 11 12 12 12 12 12 12 13 13 14 14 14 14 14 15 16 17 17 17 16 16 17 17 17 17 18 20 21 23 24 25 25 26 27 28 29 29 28 29 30 30 30 30 29 29 28 28 28
22 23 24 25 24 22 19 16 15 15 14 12 11 12 14 16 15 14 13 13 12 11 11 11 11 11 10 9 9 9 11 12 10 9 9 10 10 10 10 10 11 11 11 11 12 12 12 12 12 12 13 13 13 13 13 14 15 15 16 16 17 17 16 16 16 17 19 20 21 22 22 23 24 26 27 27 26 25 26 28 29 29 28 28 28 28 28
19 21 23 23 25 26 24 21 17 16 16 16 15 14 14 15 15 14 14 14 14 14 14 14 13 13 13 12 11 11 12 11 10 9 8 9 9 9 9 9 9 9 10 10 11 11 11 10 10 11 11 11 11 12 12 12 12 13 14 15 16 16 17 16 16 16 17 18 19 20 20 21 21 22 24 24 23 22 22 24 25 26 26 27 27 27 28
18 20 21 21 22 25 28 26 21 18 18 20 18 16 13 14 15 14 15 15 15 15 15 15 15 15 14 14 14 13 13 12 10 9 8 8 8 8 8 8 9 9 9 9 9 8 8 8 8 9 10 10 10 11 11 11 11 11 12 13 15 15 16 16 16 16 17 17 18 18 19 19 19 19 20 21 21 20 19 19 21 22 23 24 25 26 26
16 19 21 22 21 21 25 27 24 20 20 21 18 15 13 14 15 15 15 16 15 15 16 16 16 15 15 15 15 15 14 13 11 10 9 9 9 8 8 8 8 9 9 9 8 7 7 8 8 9 9 9 10 10 11 11 11 10 10 11 13 14 15 15 16 16 16 16 17 17 17 17 18 18 19 20 20 19 17 16 17 19 20 21 22 22 23
17 20 22 22 21 19 21 26 26 24 23 22 18 15 15 16 16 15 16 17 17 16 16 17 16 15 15 15 15 15 15 14 12 11 10 10 10 10 9 9 10 10 10 10 8 7 7 8 8 9 9 9 10 10 11 11 11 11 11 11 11 12 13 14 14 15 15 16 16 17 16 16 17 18 19 19 20 20 17 15 15 16 17 19 19 20 21
19 20 21 21 20 18 19 24 28 28 26 22 17 14 14 17 18 17 17 19 19 18 17 17 17 16 15 14 15 15 15 15 14 12 11 11 11 10 10 10 10 11 11 10 9 9 8 8 9 9 9 9 9 10 10 11 11 11 11 11 12 12 12 13 13 14 14 15 16 16 17 17 17 18 18 19 19 19 18 16 15 15 16 17 18 18 19
19 20 20 19 19 18 17 22 27 30 28 23 17 13 13 17 20 20 19 20 21 21 19 18 18 17 16 15 15 15 15 15 14 13 12 11 11 11 10 10 10 10 11 10 10 9 9 8 8 9 9 9 9 10 10 10 11 11 11 12 12 12 13 13 13 13 13 14 14 15 16 16 17 17 17 17 18 18 18 17 16 16 17 17 18 18 19
18 19 19 18 17 18 18 18 22 27 28 24 19 14 13 15 19 20 20 20 21 22 21 19 19 19 19 18 16 15 15 15 14 14 13 12 12 12 11 11 10 10 11 10 10 9 9 8 8 8 8 8 9 9 9 10 10 10 10 11 12 12 12 13 13 13 13 13 13 14 14 15 15 16 16 16 16 16 16 17 17 16 16 17 17 18 19
18 18 18 17 17 18 17 16 17 20 24 25 22 18 16 15 17 20 21 22 23 24 23 22 21 20 20 20 19 17 15 15 15 14 14 14 13 12 12 12 11 11 11 11 10 10 9 9 8 7 7 7 7 8 8 8 9 9 9 10 10 11 11 12 12 13 12 13 13 13 13 14 14 15 15 15 15 15 15 16 16 16 15 15 16 16 17
Wind_Direction
296 324 254 176 147 152 164 179 220 210 169 166 186 229 229 165 193 258 257 269 281 287 294 295 294 298 304 307 308 310 311 313 316 319 319 319 320 321 323 324 323 321 321 321 321 320 318 319 318 316 312 306 298 284 271 260 254 251 247 243 236 228 225 227 231 232 230 227 226 227 228 229 232 235 236 238 240 242 242 241 239 239 239 240 239 239 238
326 352 333 158 132 122 167 215 234 201 184 203 218 245 237 191 232 257 268 279 278 275 277 280 287 296 302 305 307 310 312 313 316 318 318 318 320 323 325 325 324 324 324 323 322 321 322 322 320 318 314 308 298 283 266 254 249 247 245 241 235 228 224 226 229 231 229 227 227 227 227 228 232 234 236 237 239 240 241 240 240 240 240 240 241 242 243
329 358 355 14 71 74 262 274 275 248 239 247 246 261 249 221 258 264 266 278 280 271 266 272 291 301 305 307 310 313 314 315 318 322 322 322 324 326 326 324 324 324 323 323 323 323 325 325 323 321 316 307 293 280 265 249 243 243 242 237 231 226 223 225 229 230 227 226 227 226 226 228 231 235 236 237 237 239 240 240 239 239 240 241 242 243 243
305 330 344 348 12 5 312 287 277 258 251 246 233 234 213 199 236 267 277 287 290 288 289 295 301 305 308 309 313 315 315 317 323 326 326 326 326 326 324 323 324 324 323 325 326 327 328 328 326 324 319 304 288 281 268 248 238 238 237 231 226 225 223 224 227 227 225 224 224 224 224 227 231 234 237 237 236 238 241 242 241 240 240 240 241 243 242
293 315 356 353 350 330 284 263 233 210 225 256 275 276 245 206 197 239 262 267 279 293 306 311 309 311 314 314 317 318 315 317 327 329 327 326 325 324 324 325 325 326 328 331 332 331 332 331 329 327 323 309 292 285 271 246 233 231 229 225 223 224 222 222 225 224 221 221 222 222 223 226 230 234 238 238 236 236 239 243 245 244 243 240 241 243 242
308 334 42 42 333 267 249 252 199 179 209 246 256 276 268 227 195 217 251 271 284 293 301 304 303 308 313 314 318 319 315 318 327 329 327 326 326 326 328 328 329 332 335 336 335 336 336 337 339 342 341 330 314 295 264 233 224 225 225 221 221 221 220 221 223 222 218 219 221 222 223 226 230 233 237 238 238 238 240 243 246 248 247 242 241 245 246
77 9 45 36 292 234 240 274 251 197 197 192 216 267 275 250 230 240 261 275 281 288 295 299 301 305 312 316 318 319 318 324 330 329 327 327 328 330 331 331 334 338 337 336 337 338 340 346 351 354 354 355 356 352 281 215 223 230 223 217 216 217 217 219 220 219 217 219 221 223 225 229 231 233 236 239 241 242 243 245 247 249 249 246 242 244 248
136 28 58 7 259 255 288 306 284 222 158 161 260 295 290 263 232 223 246 267 277 292 301 305 310 313 314 314 312 316 326 334 335 330 327 330 332 332 333 335 337 339 337 338 340 342 348 356 359 354 353 1 10 8 333 259 239 222 209 205 206 209 212 216 217 218 218 220 223 225 228 231 232 233 236 239 242 244 244 244 245 247 248 246 242 242 246
150 140 216 271 305 327 328 309 244 205 226 237 138 285 282 268 229 211 238 272 285 298 305 313 320 320 315 303 295 321 336 339 338 334 333 336 337 336 338 341 341 342 343 346 350 353 359 5 4 354 351 358 5 1 339 300 197 180 184 188 192 198 206 212 214 215 217 220 224 226 228 229 230 231 234 237 240 241 241 242 244 246 248 246 242 242 245
101 109 305 325 5 337 276 254 248 240 223 180 123 119 290 277 245 233 237 267 292 302 309 319 325 326 326 317 317 334 341 342 342 341 340 341 342 342 344 345 345 346 348 353 358 3 7 12 14 12 12 12 11 17 32 53 93 139 160 175 187 196 204 209 212 214 217 221 225 227 227 227 227 230 234 236 239 241 242 244 246 248 249 246 243 243 246
76 100 347 295 221 255 249 242 266 293 164 153 121 72 307 273 259 259 249 275 299 308 314 322 330 336 340 335 330 337 342 345 344 343 343 343 344 346 347 347 347 348 351 358 4 9 12 15 19 26 33 34 29 34 48 62 80 102 131 171 191 198 202 207 214 218 221 224 225 225 226 226 228 233 236 239 241 241 243 245 246 247 247 244 242 243 244
152 129 192 233 229 250 243 240 264 228 147 154 110 358 295 263 297 319 304 299 306 313 320 326 337 345 331 319 326 335 341 343 343 344 343 342 344 346 348 350 351 352 357 4 9 13 15 16 17 24 34 39 42 48 54 65 92 107 120 159 185 193 197 201 208 214 219 224 226 229 232 235 237 240 242 245 245 245 246 247 246 245 243 241 242 244 243
164 156 227 275 266 251 246 238 184 140 139 133 21 313 275 286 329 336 322 312 314 320 325 326 326 328 329 327 330 337 342 342 343 345 345 344 345 347 349 352 353 355 1 9 12 13 16 19 20 22 28 33 35 41 53 82 115 112 106 124 183 210 210 208 210 214 220 227 234 239 242 244 246 246 247 249 251 252 252 251 248 245 242 240 242 244 244
161 162 193 297 296 254 220 160 129 137 134 4 260 252 280 312 326 328 318 315 321 327 327 328 329 332 337 340 341 344 345 343 344 347 348 349 349 350 352 355 357 -0 5 10 14 13 15 21 25 25 27 29 30 35 52 75 92 102 104 124 151 194 222 220 216 219 230 245 257 263 263 261 256 252 249 249 251 253 251 248 245 243 242 241 242 243 244
152 53 48 357 295 248 190 143 110 146 184 245 253 266 304 319 320 322 315 314 325 329 326 333 339 338 342 346 347 348 349 349 349 350 352 353 353 354 357 359 2 5 6 8 13 14 13 17 22 26 29 27 26 32 46 56 62 70 214 206 174 158 166 185 196 234 272 279 279 278 277 274 267 260 254 249 248 250 250 244 239 238 240 242 242 242 243
138 86 185 203 227 220 186 178 206 226 228 264 283 286 298 303 308 315 312 315 324 326 326 336 342 342 345 347 349 351 354 354 353 354 356 358 358 359 1 2 5 7 6 7 14 19 18 15 14 19 26 27 27 31 37 45 64 86 113 218 200 177 183 198 219 252 276 287 288 285 283 280 271 262 255 248 244 246 247 244 239 238 240 241 241 241 242
175 192 232 238 257 256 214 217 244 257 261 274 280 274 281 291 300 307 310 314 317 321 330 338 342 346 348 347 349 353 355 355 357 359 1 2 3 3 5 6 8 9 7 8 15 20 22 21 15 11 16 21 24 29 33 38 61 85 95 136 189 187 207 233 253 270 283 293 296 292 287 281 272 260 252 245 241 241 242 242 242 241 241 241 240 240 241
262 265 257 257 269 268 250 246 262 268 264 257 257 268 275 280 291 302 309 311 312 319 330 337 344 350 350 347 348 353 355 356 359 3 5 6 8 8 9 10 11 9 8 10 14 16 18 22 23 18 15 16 17 22 31 40 52 68 78 104 162 181 269 305 307 303 300 300 297 287 278 276 272 260 247 239 235 236 239 239 240 241 242 242 241 240 241
324 280 256 250 261 258 254 267 275 268 256 244 243 259 266 270 286 298 304 308 311 320 328 336 348 355 353 349 349 352 355 357 1 6 8 9 10 12 13 14 13 12 10 10 12 13 13 16 21 24 25 23 17 14 22 37 50 61 62 73 118 78 325 321 317 310 303 299 292 281 273 271 267 256 244 236 232 234 237 238 239 241 243 242 241 241 243
178 256 269 278 280 267 260 270 280 277 258 239 236 248 258 266 279 285 295 306 314 322 327 335 351 358 357 353 350 351 355 358 2 7 9 10 13 15 17 18 17 16 15 13 13 13 11 11 15 20 27 31 27 19 16 21 35 51 54 55 70 53 311 291 295 296 287 282 284 284 275 261 250 243 237 234 233 234 236 236 238 242 244 243 241 241 243
274 283 289 297 297 282 267 269 285 289 258 229 227 237 248 260 272 280 292 303 312 321 324 332 351 359 359 356 353 352 354 358 3 7 8 11 17 19 20 22 22 22 22 20 18 18 17 16 17 18 24 30 33 33 31 22 16 32 50 52 53 48 265 242 251 270 269 265 279 293 298 266 242 241 238 235 235 236 236 236 238 240 241 241 240 240 240
275 262 267 279 284 275 274 283 300 290 243 215 215 229 247 261 267 273 288 298 307 317 317 325 350 0 360 358 355 354 355 359 4 7 8 12 19 22 22 24 27 28 28 27 26 27 27 26 25 24 25 28 30 35 40 38 31 38 58 70 73 93 208 243 272 288 279 243 281 305 321 340 308 262 247 246 247 240 234 236 240 242 241 241 241 242 243
245 263 279 267 226 248 277 298 302 273 227 209 213 230 254 265 260 264 284 297 309 319 314 319 345 360 1 1 358 356 358 1 5 8 9 11 17 21 23 25 28 29 29 29 29 30 31 30 30 30 30 31 31 33 37 39 37 41 49 54 62 88 133 185 321 342 2 62 74 338 325 334 336 298 215 231 261 248 234 231 237 244 245 244 242 243 246
254 288 305 287 246 263 289 299 289 255 219 213 219 231 256 265 258 262 278 292 310 324 317 317 339 357 3 5 3 -0 1 3 5 7 8 10 13 17 21 25 27 28 28 28 28 30 32 31 30 30 30 31 33 36 38 38 35 35 36 36 38 44 52 71 89 54 27 40 46 31 16 -0 354 354 92 124 160 224 228 222 218 230 245 250 247 241 237
262 279 299 300 278 281 290 288 274 239 216 215 219 230 254 264 261 264 274 289 309 324 318 315 332 354 3 7 8 5 4 4 4 3 4 6 9 14 18 23 26 27 28 29 28 29 31 32 30 30 29 28 30 34 38 40 38 36 34 32 31 33 33 38 51 63 60 44 27 22 28 37 38 28 18 27 25 306 265 146 138 154 236 280 270 250 235
270 269 280 293 284 275 276 276 263 234 220 216 216 229 252 269 271 270 274 285 301 317 319 312 324 349 0 6 11 10 7 6 5 3 3 5 9 13 16 19 21 23 26 29 30 30 31 32 31 30 28 27 27 31 36 39 39 38 36 33 30 28 26 24 28 34 41 40 30 21 23 31 40 42 34 21 350 337 354 47 79 87 83 335 311 280 252
276 265 263 267 266 265 269 278 276 248 227 218 216 228 243 268 285 279 273 277 291 308 312 305 313 338 354 4 11 12 9 8 6 6 7 8 10 12 13 13 16 21 25 27 29 30 31 32 31 31 29 26 24 28 34 38 40 40 38 34 32 30 27 24 24 27 27 27 25 23 23 26 32 35 33 29 20 9 14 31 47 57 63 39 2 333 298
272 257 250 251 263 279 288 294 287 253 224 215 217 227 236 259 285 284 272 269 279 299 309 304 306 321 342 360 9 12 12 10 8 9 11 11 10 9 9 9 13 21 26 27 27 29 31 31 31 31 30 28 25 25 30 36 39 41 39 36 34 32 31 30 32 32 28 25 22 20 18 21 27 31 28 22 19 20 24 30 36 38 36 35 35 28 353
258 244 240 246 265 291 303 297 277 239 215 213 222 230 241 256 271 286 286 275 275 291 307 306 302 309 329 353 6 12 14 14 11 9 11 13 12 9 8 8 12 19 26 27 26 26 27 29 30 30 30 30 29 28 30 34 38 41 41 38 36 34 34 35 38 39 37 31 24 19 16 16 19 25 28 25 16 12 16 24 29 28 22 28 40 40 43
226 219 226 244 267 293 299 288 259 226 216 222 231 237 247 256 262 286 305 290 275 282 298 303 300 303 316 339 0 11 15 16 14 11 11 16 17 14 11 11 13 17 21 22 22 23 24 25 27 28 28 29 31 33 36 38 39 41 41 41 39 37 37 38 40 42 43 43 38 31 27 27 27 24 23 24 24 21 17 13 10 7 359 342 330 334 345
211 207 222 247 272 295 292 262 238 229 228 235 241 243 247 252 260 282 308 302 281 279 290 296 296 297 301 316 348 8 15 17 15 11 11 16 20 19 18 16 15 15 16 16 18 20 22 23 25 26 27 29 30 33 38 42 43 44 44 43 41 40 39 40 41 43 44 46 47 45 40 37 35 33 31 32 31 29 25 17 8 2 354 343 336 335 332
203 198 215 243 266 283 265 240 237 240 239 242 248 249 250 253 260 280 305 305 285 278 287 295 297 298 295 298 323 353 5 10 10 7 9 15 20 22 22 21 19 17 16 15 17 18 20 22 23 24 26 29 30 32 35 39 43 45 45 45 44 43 42 43 44 45 46 46 47 47 46 45 43 41 40 40 39 37 36 33 29 24 19 11 3 357 348
205 204 223 240 250 256 249 243 248 256 254 256 260 258 252 252 261 282 301 299 285 283 294 301 303 300 291 283 292 330 351 357 359 0 4 11 18 21 23 23 22 21 20 18 17 18 19 21 22 23 25 28 30 32 35 37 39 42 44 45 46 46 46 46 47 47 48 49 49 49 49 48 48 47 46 46 45 44 44 44 44 41 36 32 25 15 4
238 246 255 263 271 270 260 251 253 261 266 269 268 259 252 255 265 284 295 291 284 290 300 304 305 302 289 275 274 305 343 345 347 353 -0 6 11 16 19 20 21 22 23 22 20 18 19 19 20 21 23 26 29 32 34 36 39 41 43 44 45 46 47 48 48 49 50 50 50 50 51 51 50 49 47 45 45 46 47 48 49 48 46 43 40 33 25
256 264 273 284 290 281 263 254 259 265 269 272 270 264 262 265 272 280 286 285 285 294 303 308 308 304 287 269 264 279 327 335 337 345 355 1 3 6 9 11 12 15 20 23 22 20 18 17 18 19 21 24 27 29 31 33 36 40 43 45 47 48 48 49 49 50 51 51 50 49 50 51 51 51 50 49 46 45 45 46 47 48 48 47 45 43 41
257 266 280 294 297 278 255 257 271 273 269 272 275 272 271 273 275 279 284 284 286 295 306 312 314 311 294 270 258 264 305 322 327 338 347 352 355 358 360 1 4 8 16 22 23 22 18 16 16 16 17 21 25 27 27 29 32 36 41 45 47 49 50 51 51 52 52 51 51 50 50 50 50 50 51 51 50 49 47 45 45 45 45 46 45 43 42
263 271 282 295 296 278 262 267 279 278 271 272 273 273 276 279 279 281 286 289 292 300 309 314 319 319 305 273 253 257 288 307 318 330 337 340 343 348 350 351 356 4 12 18 22 22 19 17 16 14 13 16 21 24 25 26 28 31 36 40 43 47 49 51 52 52 52 51 52 51 51 51 50 49 48 48 48 48 47 46 44 43 42 41 40 40 40
262 267 275 285 286 278 270 269 272 271 268 268 270 275 280 279 274 277 287 290 294 302 308 311 316 319 308 278 258 266 287 301 310 320 326 327 329 334 339 342 348 358 8 14 17 19 18 17 16 15 14 15 18 20 22 23 24 28 33 36 39 42 46 48 50 51 50 50 50 50 49 50 50 49 48 47 46 45 45 45 44 43 41 39 37 36 36
254 257 264 270 272 269 266 264 265 266 266 267 270 274 276 274 270 271 277 277 282 298 308 310 313 315 307 290 282 289 297 299 300 304 310 314 319 326 333 337 341 351 4 9 9 13 17 16 14 14 14 15 16 18 19 19 19 23 29 34 36 38 41 43 45 47 47 47 47 47 47 48 48 48 48 47 46 46 45 43 43 43 42 41 39 37 35
254 255 259 265 268 267 262 262 265 269 269 267 268 269 272 273 272 267 263 266 273 291 310 317 321 321 309 296 297 305 305 298 293 294 300 305 311 318 326 329 331 339 354 0 1 5 12 13 10 9 11 12 12 14 16 16 15 17 24 31 34 36 37 38 39 42 43 43 43 43 44 44 44 45 45 46 46 46 46 44 42 41 41 41 40 39 37
260 259 259 261 264 265 264 265 268 268 266 267 269 268 265 265 268 269 265 265 269 276 289 308 316 318 314 304 305 314 314 306 298 296 297 299 303 310 318 322 322 325 336 346 350 356 3 7 6 5 6 8 9 10 11 11 10 12 18 25 30 33 35 35 35 37 38 38 39 40 40 39 39 40 41 42 44 45 46 45 44 42 40 39 39 38 37
263 263 261 261 262 263 265 266 266 264 263 266 273 272 265 260 264 268 265 262 263 268 275 285 289 293 300 303 307 320 326 319 306 299 298 301 306 312 316 318 317 317 322 330 337 343 350 356 357 358 0 4 6 7 6 5 5 8 14 18 22 26 30 32 33 33 34 34 34 35 34 33 33 34 35 37 39 41 43 44 44 43 41 39 37 36 35
268 265 262 261 261 261 263 264 263 262 261 264 273 275 267 259 260 263 262 261 265 267 272 279 285 287 290 290 294 311 325 327 318 308 305 308 314 317 316 314 314 313 313 319 325 330 337 344 348 350 353 359 4 5 2 360 1 7 13 15 15 17 22 26 29 31 30 31 31 31 30 28 27 26 28 30 33 36 38 39 40 40 40 39 37 35 33
278 274 270 266 261 259 260 258 254 254 257 264 277 281 268 257 257 260 259 260 264 267 271 278 284 285 285 284 284 296 314 325 326 320 313 313 316 318 314 312 314 314 314 316 319 321 326 335 341 344 349 356 2 4 1 357 356 2 9 12 13 14 15 18 23 28 28 27 27 27 28 27 25 23 22 25 28 31 32 33 35 35 35 35 35 35 33
289 288 287 279 267 258 254 249 246 249 253 260 272 279 266 253 255 261 260 258 260 264 268 275 282 284 283 280 279 285 301 316 327 331 324 316 315 315 311 310 315 321 323 322 321 320 323 330 336 340 345 352 358 0 1 358 354 356 1 6 10 14 16 16 18 22 23 23 22 22 22 23 23 21 19 20 24 28 29 28 28 29 29 29 29 30 30
295 297 300 297 282 265 253 247 248 252 251 252 265 277 267 249 252 262 262 258 259 263 265 271 279 282 281 278 277 282 292 305 319 332 334 324 317 316 313 311 315 322 328 329 327 326 327 331 334 337 342 347 351 354 358 359 356 353 354 358 4 11 15 16 17 18 18 17 16 16 15 14 14 14 14 14 17 24 27 25 24 23 23 22 23 23 23
301 301 302 306 301 281 258 247 246 248 244 245 262 282 273 253 254 266 268 263 263 264 264 266 272 277 278 276 277 281 288 297 309 324 334 333 329 327 324 322 322 324 326 329 333 334 334 335 336 337 338 340 344 347 350 353 353 351 349 352 358 3 6 9 11 13 15 14 11 10 9 6 6 7 8 7 10 16 22 22 20 18 16 16 18 17 14
300 300 300 304 308 296 267 250 245 244 241 243 258 276 271 257 258 268 272 267 265 265 264 265 267 271 274 276 278 281 285 292 302 315 326 330 331 331 331 331 330 328 327 329 332 336 338 338 338 338 337 338 340 342 342 342 344 344 344 346 350 354 356 358 -0 2 5 6 5 3 3 2 2 4 5 4 5 9 12 14 14 13 10 9 11 12 9
298 301 301 303 306 301 276 254 247 247 245 244 251 266 268 260 258 263 269 270 268 267 267 268 267 268 270 273 276 279 282 286 294 305 316 323 326 328 329 330 328 326 327 329 331 334 339 340 337 337 338 339 339 340 339 339 340 340 340 341 345 346 348 350 352 352 353 353 353 353 355 356 358 359 1 1 1 4 5 5 6 8 7 5 4 5 4
298 302 305 305 306 302 284 262 255 255 253 248 247 259 266 258 253 256 265 270 271 270 270 269 268 267 268 270 273 277 281 284 290 297 305 312 317 320 321 322 321 319 321 325 326 327 331 335 335 336 338 339 339 339 340 341 342 341 339 339 342 343 344 345 345 344 343 343 343 344 347 348 350 352 353 355 357 360 -0 359 2 6 6 4 3 2 2
297 301 305 306 305 303 294 280 270 264 258 251 252 264 270 261 256 260 266 269 269 270 270 270 268 268 268 269 271 274 277 279 283 289 295 301 308 311 313 314 314 312 313 315 318 318 320 325 328 331 333 334 335 337 338 339 341 341 340 340 340 341 341 342 342 340 339 341 342 342 341 342 343 344 346 348 350 352 353 353 355 358 359 359 359 359 0
300 302 305 305 303 301 299 294 283 268 254 247 250 262 268 265 267 272 274 271 269 268 268 268 271 273 273 273 274 274 274 274 278 284 289 293 298 302 304 305 305 305 305 305 306 308 310 313 316 320 323 325 328 331 332 335 337 339 339 340 342 342 342 343 343 343 342 343 345 344 343 343 343 343 343 344 345 346 346 347 348 350 350 350 350 351 352